Torna al catalogo

USA 61

AttivoMilitareLEO
NORAD 20691·PAYLOAD·🇺🇸 United States

Lanciato Jun 8, 1990 da Cape Canaveral Space Force Station

Loading…

Prossimi Passaggi (prossime 24 ore)

TLE

AggiornatoSource: Space-Track

Epoca: Sep 14, 2026, 14:31 UTC

1 20691U 90050C   26257.60502736  .00002951  00000-0  21486-3 0  9994
2 20691  63.2963 330.4058 0877842  86.8945 283.2046 13.63657913118490

Traccia USA 61 in tempo reale con AllMySat

Download on the App Store